BREEZE-M R/B

Satellite information

Favourite Embed

Satellite Type and Status

ROCKET BODYIN ORBIT

Key statistics

Satellite BREEZE-M R/B at a glance.

Uptime

8976

Days in orbit

Revolutions

≈ 1.0

Per day

Orbit

OTHER

Other

Inclination

15.1

Latest

Satellite identification and parameters

Extended collection of information and parameters for BREEZE-M R/B.

Object identification

Identified? True

Debris? False

Object name: BREEZE-M R/B

International designator: 2001-014C

Object number (NORAD): 26738

Object ID (CCSDS): 26738

Country: COMMONWEALTH OF INDEPENDENT STATES (CIS)

Current information (Y/N): Y

RCS size: MEDIUM

Orbital parameters

Period: 1469.94 minutes

Inclination: 15.0526 deg

SMA: 42824.587 km

Apoapsis: 37220.213 km

Periapsis: 35672.691 km

RAAN: 16.0274 deg

Eccentricy: 0.01806815

Argument of periapsis: 229.3193 deg

Mean anomaly: 142.5795 deg

Mean motion: 0.97963206 rev/day

Mean motion (dot): -0.0000005 rev/day2

B* drag term: 0.0 1/REarth

Two-line elements (TLE)

Creation date: Nov. 2, 2025, 5:34 p.m.

Reference frame: TEME

Reference center: EARTH

Epoch: Nov. 1, 2025, 5:10 p.m. UTC

TLE line 0: 0 BREEZE-M R/B

TLE line 1: 1 26738U 01014C 25305.71572623 -.00000050 00000-0 00000-0 0 9996

TLE line 2: 2 26738 15.0526 16.0274 0180681 229.3193 142.5795 0.97963206 87932

Live tracking on map

Real-time ground track for satellite BREEZE-M R/B.

In-orbit conjunctions

A list of the most updated potential collisions computed for object BREEZE-M R/B.

Target Orbit TCA Probability of collision Miss distance Type
ECHOSTAR 8 OTHER 2025-06-11 04:24:01 TBA 3766.0 (m) PAYLOAD
EKRAN 20 OTHER 2024-11-19 07:32:42 TBA 4438.0 (m) PAYLOAD

Associated space launch

Direct broadcasting satellite

BREEZE-M R/B was lifted into orbit during the mission ‘Proton-M Briz-M | Ekran-M 4’, on board a Proton-M Briz-M space rocket.

The launch took place on April 7, 2001, 3:47 a.m. from 81/24 (81P).

For more information about the launch, click the button.

Launch to space Proton-M Briz-M | Ekran-M 4
Proton-M Briz-M | Ekran-M 4

Agency: N/A

Status: Launch Successful

Launch date: April 7, 2001, 3:47 a.m. UTC

Rocket: Proton-M Briz-M

Launch pad: 81/24 (81P)

Location: Baikonur Cosmodrome, Republic of Kazakhstan

...

Latest news about this satellite

There are no fresh news available about this satellite. Check back as we update our databases every day.


Newsletter sign-up

Weekly statistics, charts and insights to help you stay on top of the space industry.